Weather History for Belize, Belize

Change the Weather History Date:

Thursday, October 3, 2013

  Actual Average Record
Temperature  
Mean Temperature 80 °F -  
Max Temperature 84 °F 87 °F 89 °F (1996)
Min Temperature 77 °F 73 °F 73 °F (2007)
Cooling Degree Days 16    
Growing Degree Days 30 (Base 50)    
Moisture  
Dew Point 77 °F    
Average Humidity 85    
Maximum Humidity 100    
Minimum Humidity 68    
Precipitation  
Precipitation 0.03 in 0.33 in - ()
Sea Level Pressure  
Sea Level Pressure 29.86 in    
Wind  
Wind Speed 2 mph ()    
Max Wind Speed 8 mph    
Max Gust Speed -    
Visibility 8.1 miles    
Events Rain , Thunderstorm    
Averages and records for this station are not official NWS values.
T = Trace of Precipitation, MM = Missing Value Source: Averaged Metar Reports

Daily Weather History Graph

Daily Weather History Graph

Search for Another Location

Airport:

Trip Planner

Search our weather history database for the weather conditions in past years. The results will help you decide how hot, cold, wet, or windy it might be!

Date:

Astronomy

Oct. 03, 2013 Rise Set
Actual Time 5:43 AM CST 5:40 PM CST
Civil Twilight 5:22 AM CST 6:01 PM CST
Nautical Twilight 4:57 AM CST 6:26 PM CST
Astronomical Twilight 4:31 AM CST 6:52 PM CST
Moon 4:25 AM CST (10/3) 4:44 PM CST (10/3)
Length of Visible Light 12h 39m
Length of Day
11h 56m
Waning Crescent, 2% of the Moon is Illuminated
Oct 3
Waning Crescent
Oct 4
New
Oct 11
First Quarter
Oct 18
Full
Oct 26
Last Quarter

Hourly Weather History & Observations

Time (CST) Temp. Heat Index Dew Point Humidity Pressure Visibility Wind Dir Wind Speed Gust Speed Precip Events Conditions
12:00 AM 80 °F - 77 °F 89% 29.86 in 12 mi Calm Calm - -   Scattered Clouds
3:00 AM 78 °F - 77 °F 94% 29.81 in 12 mi Calm Calm - -   Scattered Clouds
5:00 AM 77.0 °F - 75.2 °F 94% 29.83 in 6.2 mi Calm Calm - N/A   Mostly Cloudy
6:00 AM 77.0 °F - 77.0 °F 100% 29.85 in 6.2 mi Calm Calm - N/A   Mostly Cloudy
7:00 AM 78.8 °F - 77.0 °F 94% 29.88 in 6.2 mi Calm Calm - N/A Thunderstorm Thunderstorm
8:00 AM 80.6 °F 88.1 °F 78.8 °F 94% 29.90 in 6.2 mi Calm Calm - N/A Thunderstorm Thunderstorm
9:00 AM 82 °F - 78 °F 86% 29.92 in 12 mi Calm Calm - - Thunderstorm Thunderstorm
9:00 AM 82.4 °F 92.4 °F 78.8 °F 89% 29.92 in 6.2 mi Calm Calm - N/A Thunderstorm Thunderstorm
10:00 AM 78.8 °F - 77.0 °F 94% 2.99 in 6.2 mi East 6.9 mph - N/A Rain Light Rain Showers
11:00 AM 80.6 °F 87.1 °F 77.0 °F 89% 29.92 in 6.2 mi ENE 5.8 mph - N/A   Mostly Cloudy
12:00 PM 82 °F - 77 °F 82% 29.88 in 12 mi ENE 4.6 mph - - Rain Light Rain Showers
12:00 PM 82.4 °F 90.9 °F 77.0 °F 84% 2.98 in 6.2 mi ENE 4.6 mph - N/A Rain Light Rain Showers
1:00 PM 84.2 °F 94.1 °F 77.0 °F 79% 29.84 in 6.2 mi NNE 3.5 mph - N/A   Mostly Cloudy
2:00 PM 84.2 °F 94.1 °F 77.0 °F 79% 29.83 in 6.2 mi NNE 4.6 mph - N/A   Mostly Cloudy
3:00 PM 85 °F - 76 °F 68% 29.82 in 12 mi NNE 6.9 mph - -   Partly Cloudy
3:00 PM 86.0 °F 96.9 °F 77.0 °F 74% 29.81 in 6.2 mi NNE 6.9 mph - N/A   Mostly Cloudy
4:00 PM 86.0 °F 96.9 °F 77.0 °F 74% 29.81 in 6.2 mi ENE 8.1 mph - N/A   Mostly Cloudy
5:00 PM 84.2 °F 94.1 °F 77.0 °F 79% 29.81 in 6.2 mi ENE 5.8 mph - N/A   Mostly Cloudy
6:00 PM 83 °F - 78 °F 81% 29.83 in 12 mi ENE 4.6 mph - -   Partly Cloudy
6:00 PM 82.4 °F 92.4 °F 78.8 °F 89% 29.83 in 6.2 mi ENE 4.6 mph - N/A   Mostly Cloudy
9:00 PM 81 °F - 77 °F 83% 29.90 in 12 mi East 4.6 mph - -   Scattered Clouds